Time,TemperatureF,DewpointF,PressureIn,WindDirection,WindDirectionDegrees,WindSpeedMPH,WindSpeedGustMPH,Humidity,HourlyPrecipIn,Conditions,Clouds,dailyrainin,SoftwareType,DateUTC
2013-12-10 00:05:00,31.5,30.0,29.80,NNW,346,0.0,0.0,96,0.00,,,0.00,vanprod,2013-12-10 05:05:00,
2013-12-10 00:15:00,31.3,30.0,29.80,NNW,346,0.0,0.0,96,0.00,,,0.00,vanprod,2013-12-10 05:15:00,
2013-12-10 00:25:00,31.3,30.0,29.80,East,99,0.0,0.0,96,0.00,,,0.00,vanprod,2013-12-10 05:25:00,
2013-12-10 00:35:00,31.3,30.0,29.80,East,99,0.0,0.0,96,0.00,,,0.00,vanprod,2013-12-10 05:35:00,
2013-12-10 00:45:00,31.3,30.0,29.79,East,99,0.0,0.0,96,0.00,,,0.00,vanprod,2013-12-10 05:45:00,
2013-12-10 00:55:00,31.3,30.0,29.79,East,99,1.0,1.0,96,0.00,,,0.00,vanprod,2013-12-10 05:55:00,
2013-12-10 01:05:00,31.3,30.0,29.80,East,99,1.0,0.0,96,0.00,,,0.00,vanprod,2013-12-10 06:05:00,
2013-12-10 01:15:00,31.6,31.0,29.79,East,99,1.0,1.0,96,0.00,,,0.00,vanprod,2013-12-10 06:15:00,
2013-12-10 01:25:00,31.6,31.0,29.79,East,99,0.0,0.0,96,0.00,,,0.00,vanprod,2013-12-10 06:25:00,
2013-12-10 01:35:00,31.6,31.0,29.81,East,99,0.0,0.0,96,0.00,,,0.00,vanprod,2013-12-10 06:35:00,
2013-12-10 01:45:00,31.6,31.0,29.81,East,99,0.0,0.0,96,0.00,,,0.00,vanprod,2013-12-10 06:45:00,
2013-12-10 01:55:00,31.6,31.0,29.81,East,99,0.0,0.0,96,0.00,,,0.00,vanprod,2013-12-10 06:55:00,
2013-12-10 02:05:00,31.6,31.0,29.81,East,99,0.0,0.0,96,0.00,,,0.00,vanprod,2013-12-10 07:05:00,
2013-12-10 02:15:00,31.6,31.0,29.81,East,99,0.0,0.0,96,0.00,,,0.00,vanprod,2013-12-10 07:15:00,
2013-12-10 02:25:00,31.6,31.0,29.81,East,99,0.0,0.0,96,0.00,,,0.00,vanprod,2013-12-10 07:25:00,
2013-12-10 02:35:00,31.5,30.0,29.81,East,99,0.0,0.0,96,0.00,,,0.00,vanprod,2013-12-10 07:35:00,
2013-12-10 02:45:00,31.3,30.0,29.81,East,99,0.0,0.0,96,0.00,,,0.00,vanprod,2013-12-10 07:45:00,
2013-12-10 02:55:00,31.2,30.0,29.81,East,99,0.0,0.0,96,0.00,,,0.00,vanprod,2013-12-10 07:55:00,
2013-12-10 03:05:00,31.0,30.0,29.80,East,99,0.0,0.0,96,0.00,,,0.00,vanprod,2013-12-10 08:05:00,
2013-12-10 03:15:00,30.9,30.0,29.81,East,99,0.0,0.0,96,0.00,,,0.00,vanprod,2013-12-10 08:15:00,
2013-12-10 03:25:00,30.7,30.0,29.81,East,99,0.0,0.0,96,0.00,,,0.00,vanprod,2013-12-10 08:25:00,
2013-12-10 03:35:00,30.7,30.0,29.80,East,99,0.0,0.0,96,0.00,,,0.00,vanprod,2013-12-10 08:35:00,
2013-12-10 03:45:00,30.9,30.0,29.79,East,99,0.0,0.0,96,0.00,,,0.00,vanprod,2013-12-10 08:45:00,
2013-12-10 03:55:00,30.9,30.0,29.79,East,99,0.0,0.0,96,0.00,,,0.00,vanprod,2013-12-10 08:55:00,
2013-12-10 04:05:00,31.0,30.0,29.79,East,99,0.0,0.0,96,0.00,,,0.00,vanprod,2013-12-10 09:05:00,
2013-12-10 04:15:00,30.9,30.0,29.79,East,99,0.0,0.0,96,0.00,,,0.00,vanprod,2013-12-10 09:15:00,
2013-12-10 04:25:00,30.7,30.0,29.79,East,99,0.0,0.0,96,0.00,,,0.00,vanprod,2013-12-10 09:25:00,
2013-12-10 04:35:00,30.9,30.0,29.79,East,99,0.0,0.0,96,0.00,,,0.00,vanprod,2013-12-10 09:35:00,
2013-12-10 04:45:00,30.9,30.0,29.80,East,99,0.0,0.0,97,0.00,,,0.00,vanprod,2013-12-10 09:45:00,
2013-12-10 04:55:00,31.0,30.0,29.80,East,99,0.0,0.0,97,0.00,,,0.00,vanprod,2013-12-10 09:55:00,
2013-12-10 05:05:00,31.2,30.0,29.81,East,99,0.0,0.0,97,0.00,,,0.00,vanprod,2013-12-10 10:05:00,
2013-12-10 05:15:00,31.3,31.0,29.82,East,99,1.0,0.0,97,0.00,,,0.00,vanprod,2013-12-10 10:15:00,
2013-12-10 05:25:00,31.5,31.0,29.82,South,175,0.0,0.0,97,0.00,,,0.00,vanprod,2013-12-10 10:25:00,
2013-12-10 05:35:00,31.6,31.0,29.83,South,175,0.0,0.0,97,0.00,,,0.00,vanprod,2013-12-10 10:35:00,
2013-12-10 05:45:00,31.8,31.0,29.83,South,175,0.0,0.0,97,0.00,,,0.00,vanprod,2013-12-10 10:45:00,
2013-12-10 05:55:00,31.8,31.0,29.83,South,175,0.0,0.0,97,0.00,,,0.00,vanprod,2013-12-10 10:55:00,
2013-12-10 06:05:00,31.8,31.0,29.84,South,178,0.0,0.0,97,0.00,,,0.00,vanprod,2013-12-10 11:05:00,
2013-12-10 06:15:00,31.8,31.0,29.82,South,178,0.0,0.0,97,0.00,,,0.00,vanprod,2013-12-10 11:15:00,
2013-12-10 06:25:00,31.8,31.0,29.82,SSW,206,0.0,0.0,97,0.00,,,0.00,vanprod,2013-12-10 11:25:00,
2013-12-10 06:35:00,31.8,31.0,29.83,SSW,206,0.0,0.0,97,0.00,,,0.00,vanprod,2013-12-10 11:35:00,
2013-12-10 06:45:00,31.8,31.0,29.80,SSW,206,0.0,0.0,97,0.00,,,0.00,vanprod,2013-12-10 11:45:00,
2013-12-10 06:55:00,31.8,31.0,29.80,SSW,206,0.0,0.0,97,0.00,,,0.00,vanprod,2013-12-10 11:55:00,
2013-12-10 07:05:00,31.8,31.0,29.79,SSW,206,0.0,0.0,97,0.00,,,0.00,vanprod,2013-12-10 12:05:00,
2013-12-10 07:15:00,31.8,31.0,29.81,SSW,206,0.0,1.0,97,0.00,,,0.00,vanprod,2013-12-10 12:15:00,
2013-12-10 07:25:00,31.8,31.0,29.81,SSW,206,1.0,0.0,97,0.00,,,0.00,vanprod,2013-12-10 12:25:00,
2013-12-10 07:35:00,31.9,31.0,29.82,SSW,206,0.0,0.0,97,0.00,,,0.00,vanprod,2013-12-10 12:35:00,
2013-12-10 07:45:00,31.9,31.0,29.84,SSW,206,0.0,0.0,97,0.00,,,0.00,vanprod,2013-12-10 12:45:00,
2013-12-10 07:55:00,32.1,31.0,29.84,South,180,0.0,1.0,97,0.00,,,0.00,vanprod,2013-12-10 12:55:00,
2013-12-10 08:05:00,32.1,31.0,29.84,South,180,0.0,0.0,97,0.00,,,0.00,vanprod,2013-12-10 13:05:00,
2013-12-10 08:15:00,32.1,31.0,29.83,South,180,0.0,0.0,97,0.00,,,0.00,vanprod,2013-12-10 13:15:00,
2013-12-10 08:25:00,32.1,31.0,29.83,South,182,0.0,0.0,97,0.00,,,0.00,vanprod,2013-12-10 13:25:00,
2013-12-10 08:35:00,32.1,31.0,29.82,South,182,0.0,0.0,97,0.00,,,0.00,vanprod,2013-12-10 13:35:00,
2013-12-10 08:45:00,32.1,31.0,29.82,South,182,0.0,0.0,97,0.00,,,0.00,vanprod,2013-12-10 13:45:00,
2013-12-10 08:55:00,32.2,31.0,29.82,South,182,0.0,0.0,97,0.00,,,0.00,vanprod,2013-12-10 13:55:00,
2013-12-10 09:05:00,32.2,31.0,29.83,South,182,0.0,0.0,97,0.00,,,0.00,vanprod,2013-12-10 14:05:00,
2013-12-10 09:15:00,32.2,31.0,29.82,South,182,0.0,0.0,97,0.00,,,0.00,vanprod,2013-12-10 14:15:00,
2013-12-10 09:25:00,32.4,32.0,29.82,South,182,0.0,0.0,97,0.00,,,0.00,vanprod,2013-12-10 14:25:00,
2013-12-10 09:35:00,32.4,32.0,29.81,South,182,0.0,0.0,97,0.00,,,0.00,vanprod,2013-12-10 14:35:00,
2013-12-10 09:45:00,32.4,32.0,29.81,South,182,0.0,0.0,97,0.00,,,0.00,vanprod,2013-12-10 14:45:00,
2013-12-10 09:55:00,32.4,32.0,29.81,SSW,206,0.0,0.0,97,0.00,,,0.00,vanprod,2013-12-10 14:55:00,
2013-12-10 10:05:00,32.4,32.0,29.81,SSW,206,0.0,0.0,97,0.00,,,0.00,vanprod,2013-12-10 15:05:00,
2013-12-10 10:15:00,32.4,32.0,29.81,SSW,206,0.0,0.0,97,0.00,,,0.00,vanprod,2013-12-10 15:15:00,
2013-12-10 10:25:00,32.5,32.0,29.81,SSW,208,0.0,0.0,97,0.00,,,0.00,vanprod,2013-12-10 15:25:00,
2013-12-10 10:35:00,32.4,31.0,29.80,SSW,208,0.0,0.0,96,0.00,,,0.00,vanprod,2013-12-10 15:35:00,
2013-12-10 10:45:00,32.5,31.0,29.80,SSW,208,0.0,0.0,96,0.00,,,0.00,vanprod,2013-12-10 15:45:00,
2013-12-10 10:55:00,32.5,32.0,29.80,SSW,208,0.0,0.0,97,0.00,,,0.00,vanprod,2013-12-10 15:55:00,
2013-12-10 11:05:00,32.5,31.0,29.76,SSW,196,0.0,0.0,96,0.00,,,0.01,vanprod,2013-12-10 16:05:00,
2013-12-10 11:15:00,32.5,31.0,29.75,SSW,196,0.0,0.0,96,0.00,,,0.01,vanprod,2013-12-10 16:15:00,
2013-12-10 11:25:00,32.5,31.0,29.75,SSW,196,0.0,0.0,96,0.00,,,0.01,vanprod,2013-12-10 16:25:00,
2013-12-10 11:35:00,32.7,32.0,29.73,SSW,198,0.0,0.0,96,0.00,,,0.01,vanprod,2013-12-10 16:35:00,
2013-12-10 11:45:00,32.7,32.0,29.72,SSW,198,0.0,0.0,96,0.00,,,0.01,vanprod,2013-12-10 16:45:00,
2013-12-10 11:55:00,32.8,32.0,29.72,SSW,198,0.0,0.0,96,0.00,,,0.01,vanprod,2013-12-10 16:55:00,
2013-12-10 12:05:00,32.9,32.0,29.71,SSW,198,0.0,0.0,96,0.00,,,0.01,vanprod,2013-12-10 17:05:00,
2013-12-10 12:15:00,33.1,32.0,29.70,SSW,198,0.0,0.0,96,0.00,,,0.01,vanprod,2013-12-10 17:15:00,
2013-12-10 12:25:00,33.1,32.0,29.70,SSW,198,0.0,0.0,96,0.00,,,0.02,vanprod,2013-12-10 17:25:00,
2013-12-10 12:35:00,32.9,32.0,29.70,SSW,198,0.0,1.0,96,0.00,,,0.02,vanprod,2013-12-10 17:35:00,
2013-12-10 12:45:00,33.1,32.0,29.70,SSW,198,0.0,0.0,96,0.00,,,0.02,vanprod,2013-12-10 17:45:00,
2013-12-10 12:55:00,32.9,32.0,29.70,SSW,198,0.0,0.0,96,0.00,,,0.02,vanprod,2013-12-10 17:55:00,
2013-12-10 13:05:00,33.1,32.0,29.69,SSW,198,0.0,0.0,96,0.00,,,0.02,vanprod,2013-12-10 18:05:00,
2013-12-10 13:15:00,32.9,32.0,29.70,SSW,198,0.0,0.0,96,0.00,,,0.02,vanprod,2013-12-10 18:15:00,
2013-12-10 13:25:00,32.5,31.0,29.70,SSW,198,2.0,2.0,95,0.00,,,0.02,vanprod,2013-12-10 18:25:00,
2013-12-10 13:35:00,32.2,30.0,29.71,SSW,198,2.0,2.0,93,0.00,,,0.02,vanprod,2013-12-10 18:35:00,
2013-12-10 13:45:00,31.9,30.0,29.70,SSW,198,2.0,2.0,92,0.00,,,0.02,vanprod,2013-12-10 18:45:00,
2013-12-10 13:55:00,31.8,30.0,29.70,SSW,198,1.0,1.0,92,0.00,,,0.02,vanprod,2013-12-10 18:55:00,
2013-12-10 14:05:00,31.6,29.0,29.70,SE,124,1.0,1.0,92,0.00,,,0.02,vanprod,2013-12-10 19:05:00,
2013-12-10 14:15:00,31.6,29.0,29.71,SE,124,1.0,2.0,92,0.00,,,0.02,vanprod,2013-12-10 19:15:00,
2013-12-10 14:25:00,31.3,29.0,29.71,North,5,2.0,2.0,92,0.00,,,0.02,vanprod,2013-12-10 19:25:00,
2013-12-10 14:35:00,31.2,29.0,29.71,North,5,2.0,3.0,91,0.00,,,0.02,vanprod,2013-12-10 19:35:00,
2013-12-10 14:45:00,30.9,29.0,29.71,North,5,2.0,2.0,91,0.00,,,0.02,vanprod,2013-12-10 19:45:00,
2013-12-10 14:55:00,30.7,29.0,29.71,South,173,1.0,2.0,92,0.00,,,0.02,vanprod,2013-12-10 19:55:00,
2013-12-10 15:05:00,30.6,29.0,29.70,South,173,1.0,1.0,92,0.00,,,0.02,vanprod,2013-12-10 20:05:00,
2013-12-10 15:15:00,30.4,28.0,29.71,South,173,1.0,1.0,92,0.00,,,0.02,vanprod,2013-12-10 20:15:00,
2013-12-10 15:25:00,30.4,28.0,29.71,South,187,1.0,0.0,92,0.00,,,0.02,vanprod,2013-12-10 20:25:00,
2013-12-10 15:35:00,30.1,28.0,29.71,South,187,2.0,0.0,92,0.00,,,0.02,vanprod,2013-12-10 20:35:00,
2013-12-10 15:45:00,29.8,27.0,29.71,South,187,1.0,3.0,91,0.00,,,0.02,vanprod,2013-12-10 20:45:00,
2013-12-10 15:55:00,29.8,27.0,29.71,SE,146,2.0,0.0,91,0.00,,,0.02,vanprod,2013-12-10 20:55:00,
2013-12-10 16:05:00,29.8,27.0,29.71,SE,146,2.0,2.0,91,0.00,,,0.02,vanprod,2013-12-10 21:05:00,
2013-12-10 16:15:00,29.7,27.0,29.72,SE,146,2.0,2.0,88,0.00,,,0.02,vanprod,2013-12-10 21:15:00,
2013-12-10 16:25:00,29.7,26.0,29.72,SE,146,2.0,2.0,87,0.00,,,0.02,vanprod,2013-12-10 21:25:00,
2013-12-10 16:35:00,29.7,26.0,29.72,SE,146,1.0,0.0,87,0.00,,,0.02,vanprod,2013-12-10 21:35:00,
2013-12-10 16:45:00,29.5,26.0,29.72,SE,146,2.0,2.0,85,0.00,,,0.02,vanprod,2013-12-10 21:45:00,
2013-12-10 16:55:00,29.5,26.0,29.72,SE,146,2.0,2.0,86,0.00,,,0.02,vanprod,2013-12-10 21:55:00,
2013-12-10 17:05:00,29.4,26.0,29.72,SSW,213,2.0,2.0,86,0.00,,,0.02,vanprod,2013-12-10 22:05:00,
2013-12-10 17:15:00,29.4,25.0,29.72,SSW,213,2.0,2.0,85,0.00,,,0.02,vanprod,2013-12-10 22:15:00,
2013-12-10 17:25:00,29.3,25.0,29.72,SSW,213,1.0,0.0,85,0.00,,,0.02,vanprod,2013-12-10 22:25:00,
2013-12-10 17:35:00,29.1,25.0,29.73,WNW,292,1.0,5.0,86,0.00,,,0.02,vanprod,2013-12-10 22:35:00,
2013-12-10 17:45:00,29.0,25.0,29.73,WNW,292,2.0,2.0,86,0.00,,,0.02,vanprod,2013-12-10 22:45:00,
2013-12-10 17:55:00,28.8,25.0,29.73,WNW,292,1.0,1.0,86,0.00,,,0.02,vanprod,2013-12-10 22:55:00,
2013-12-10 18:05:00,28.5,25.0,29.74,WSW,255,1.0,0.0,87,0.00,,,0.02,vanprod,2013-12-10 23:05:00,
2013-12-10 18:15:00,28.2,25.0,29.75,WSW,255,1.0,2.0,87,0.00,,,0.02,vanprod,2013-12-10 23:15:00,
2013-12-10 18:25:00,27.9,25.0,29.75,SSE,154,1.0,2.0,88,0.00,,,0.02,vanprod,2013-12-10 23:25:00,
2013-12-10 18:35:00,27.6,24.0,29.75,SSE,154,1.0,0.0,88,0.00,,,0.02,vanprod,2013-12-10 23:35:00,
2013-12-10 18:45:00,27.5,24.0,29.76,SSE,154,0.0,0.0,88,0.00,,,0.02,vanprod,2013-12-10 23:45:00,
2013-12-10 18:55:00,27.2,24.0,29.76,SSE,154,1.0,2.0,88,0.00,,,0.02,vanprod,2013-12-10 23:55:00,
2013-12-10 19:05:00,27.0,24.0,29.76,SSE,154,1.0,2.0,88,0.00,,,0.02,vanprod,2013-12-11 00:05:00,
2013-12-10 19:15:00,26.9,24.0,29.76,SSE,154,2.0,3.0,87,0.00,,,0.02,vanprod,2013-12-11 00:15:00,
2013-12-10 19:25:00,27.0,23.0,29.76,SSE,153,2.0,2.0,85,0.00,,,0.02,vanprod,2013-12-11 00:25:00,
2013-12-10 19:35:00,27.0,23.0,29.76,SSE,153,2.0,2.0,84,0.00,,,0.02,vanprod,2013-12-11 00:35:00,
2013-12-10 19:45:00,27.0,23.0,29.76,SSE,153,2.0,2.0,83,0.00,,,0.02,vanprod,2013-12-11 00:45:00,
2013-12-10 19:55:00,27.0,23.0,29.76,South,180,2.0,3.0,83,0.00,,,0.02,vanprod,2013-12-11 00:55:00,
2013-12-10 20:05:00,27.0,22.0,29.77,South,180,2.0,3.0,82,0.00,,,0.02,vanprod,2013-12-11 01:05:00,
2013-12-10 20:15:00,27.2,22.0,29.78,South,180,3.0,0.0,81,0.00,,,0.02,vanprod,2013-12-11 01:15:00,
2013-12-10 20:25:00,27.2,22.0,29.78,NE,54,2.0,3.0,82,0.00,,,0.02,vanprod,2013-12-11 01:25:00,
2013-12-10 20:35:00,27.3,22.0,29.78,NE,54,2.0,3.0,81,0.00,,,0.02,vanprod,2013-12-11 01:35:00,
2013-12-10 20:45:00,27.2,22.0,29.78,NE,54,2.0,4.0,81,0.00,,,0.02,vanprod,2013-12-11 01:45:00,
2013-12-10 20:55:00,26.9,22.0,29.78,East,90,2.0,2.0,81,0.00,,,0.02,vanprod,2013-12-11 01:55:00,
2013-12-10 21:05:00,26.6,22.0,29.79,East,90,2.0,3.0,82,0.00,,,0.02,vanprod,2013-12-11 02:05:00,
2013-12-10 21:15:00,26.3,22.0,29.79,East,90,2.0,2.0,82,0.00,,,0.02,vanprod,2013-12-11 02:15:00,
2013-12-10 21:25:00,26.1,21.0,29.79,SSE,155,2.0,2.0,82,0.00,,,0.02,vanprod,2013-12-11 02:25:00,
2013-12-10 21:35:00,26.0,21.0,29.80,SSE,155,2.0,2.0,82,0.00,,,0.02,vanprod,2013-12-11 02:35:00,
2013-12-10 21:45:00,25.8,21.0,29.81,SSE,155,2.0,2.0,83,0.00,,,0.02,vanprod,2013-12-11 02:45:00,
2013-12-10 21:55:00,25.6,21.0,29.81,WSW,248,2.0,2.0,83,0.00,,,0.02,vanprod,2013-12-11 02:55:00,
2013-12-10 22:05:00,25.6,21.0,29.82,WSW,248,2.0,2.0,83,0.00,,,0.03,vanprod,2013-12-11 03:05:00,
2013-12-10 22:15:00,25.4,20.0,29.83,WSW,248,2.0,0.0,81,0.00,,,0.03,vanprod,2013-12-11 03:15:00,
2013-12-10 22:25:00,25.3,20.0,29.83,SSE,168,2.0,3.0,80,0.00,,,0.03,vanprod,2013-12-11 03:25:00,
2013-12-10 22:35:00,25.0,19.0,29.84,SSE,168,1.0,1.0,78,0.00,,,0.03,vanprod,2013-12-11 03:35:00,
2013-12-10 22:45:00,24.8,18.0,29.86,SSE,168,2.0,2.0,76,0.00,,,0.03,vanprod,2013-12-11 03:45:00,
2013-12-10 22:55:00,24.7,18.0,29.86,SSE,168,2.0,2.0,74,0.00,,,0.03,vanprod,2013-12-11 03:55:00,
2013-12-10 23:05:00,24.5,18.0,29.86,South,171,1.0,1.0,75,0.00,,,0.03,vanprod,2013-12-11 04:05:00,
2013-12-10 23:15:00,24.2,18.0,29.87,South,171,1.0,1.0,77,0.00,,,0.03,vanprod,2013-12-11 04:15:00,
2013-12-10 23:25:00,23.9,18.0,29.87,South,171,1.0,1.0,77,0.00,,,0.03,vanprod,2013-12-11 04:25:00,
2013-12-10 23:35:00,23.6,17.0,29.87,SSW,201,2.0,2.0,74,0.00,,,0.03,vanprod,2013-12-11 04:35:00,
2013-12-10 23:45:00,23.6,16.0,29.87,SSW,201,1.0,0.0,73,0.00,,,0.03,vanprod,2013-12-11 04:45:00,
2013-12-10 23:55:00,23.3,16.0,29.87,SSW,201,1.0,3.0,73,0.00,,,0.03,vanprod,2013-12-11 04:55:00,